Погода в Куршуме

Поиск расширенной информации на нашем сайте:

Полезная информация:

Новости сайта



02.01.2020
Опубликован Долгосрочный прогноз погоды по городам России и ближнего зарубежья на январь 2020 года.
Карты: Прогноз на январь и февраль 2020 года, Сравнение прогнозируемой аномалии приземной температуры воздуха на январь 2020 года по разным моделям.




Погода в Куршуме - сегодня

Время (UTC), дата Ветер
(°,м/с) 
Видим.   Явления Облачность Т
(°С)
Тd
(°С)
f(%) Тe
(°С)
Pmin
(гПа)
dP
(гПа)
Po
(мм)
O2
(г/м3)
Тmin Tmax R s Состояние
почвы
12 22.10.21 110 (В) н/о  {дождь}  10/0 средняя 
[Ac As]
+2.2 -0.2 84 +3  1031.8  3.1  734  293           
15 22.10.21 110 (В) н/о    10/0 средняя 
[Ac As]
+0.6 -3 77 +1  1034.2  1.9  735  296    +9.7     
18 22.10.21 280 (З) н/о    9/0 средняя, верхняя 
[Ac As|Cs]
-0.5 -4.3 75 -1  1036  1.5  736  298    +9.7     
21 22.10.21 тихо ()   н/о    9/0 средняя, верхняя 
[Ac As|Cs]
-1 -4.9 75 -1  1036.8  0.7  737  298           
00 23.10.21 260 (З) н/о    8/0 средняя 
[Ac trans]
-1.4 -4.7 78 -1  1038.2  1.2  738  299           
03 23.10.21 310 (СЗ) 20000 м    8/4 600 м средняя, верхняя 
[Sc|Ac trans|Ci ing]
+1.9 -1.5 78 +3  1039.2  1.6  739  296           
06 23.10.21 300 (СЗ) 20000 м    6/3 600 м верхняя 
[Sc|Ci ing]
+5 -2.2 60 +6  1038.8  0.2  739  293  -2         
09 23.10.21 280 (З) 20000 м    6/0 средняя, верхняя 
[Ac lent|Ci ing]
+7.2 -5.2 41 +6  1036.7  -1.6  738  290           
12 23.10.21 140 (ЮВ) н/о    9/0 средняя, верхняя 
[Ac As|Cs]
+4.6 -4.1 53 +4  1037.5  0.3  738  293           
15 23.10.21 140 (ЮВ) н/о    10/0 средняя 
[Ac As]
+2.2 -3.1 68 +1  1038.4  0.4  738  295    +7.9       
18 23.10.21 130 (ЮВ) н/о    10/0 средняя 
[Ac As]
+1.6 -3.5 69 +1  1039  0.5  739  296    +7.9       
21 23.10.21 110 (В) н/о    9/0 средняя, верхняя 
[Ac As|Cs]
+1.2 -3.3 72 +2  1038.7  -0.4  738  297           
00 24.10.21 100 (В) н/о    10/0 средняя 
[Ac As]
+1 -3.5 72 1038.2  -0.5  738  297           
03 24.10.21 100 (В) 20000 м    10/0 средняя 
[Ac As]
+3.6 -2.3 65 +2  1037.2  -0.4  738  294           
06 24.10.21 110 (В) 20000 м    9/0 средняя 
[Ac und]
+7 -4.3 44 +6  1035.7  -0.8  737  290  +0.6         
09 24.10.21 120 (ЮВ) 20000 м    4/0 верхняя 
[Ci fib]
+9.4 -5.6 34 +9  1033.3  -1.9  736  287           
12 24.10.21 тихо ()   н/о    ясно 
+6.6 -5.4 42 +7  1033.8  736  290           
15 24.10.21 030 (СВ) н/о    ясно 
+1.4 -4.4 65 +2  1034.3  -0.5  735  295    +10       
18 24.10.21 030 (СВ) н/о    ясно 
-0.9 -5.8 69 1033.1  -1.6  734  297    +10       
21 24.10.21 040 (СВ) н/о    ясно 
-2.4 -6.7 72 -2  1031.8  -1.5  733  299           
00 25.10.21 040 (СВ) н/о    ясно 
-3.2 -6.3 79 -3  1030.2  -1.7  732  299           
03 25.10.21 тихо ()   20000 м    ясно 
+2.2 -2.7 70 +2  1028.6  -0.5  731  293           
06 25.10.21 230 (ЮЗ) 20000 м    ясно 
+10.8 -1.2 43 +12  1025.2  -1.6  730  283  -3.6         
09 25.10.21 300 (СЗ) 20000 м    ясно 
+12 -2.1 37 +13  1022.6  -2.3  728  281           
12 25.10.21 270 (З) н/о    ясно 
+8.8 -2.2 46 +10  1023  -0.2  728  284           
Время (UTC), дата Ветер
(°,м/с) 
Видим.   Явления Облачность Т
(°С)
Тd
(°С)
f(%) Тe
(°С)
Pmin
(гПа)
dP
(гПа)
Po
(мм)
O2
(г/м3)
Тmin Tmax R s Состояние
почвы

Для получения пояснительной информации подведите курсор к названию столбца.

ПОГОДА в Куршуме - архив

Всё, что Вы хотите узнать о погоде в Куршуме - удобно и подробно!

Выберите нужную дату (начиная с 1 января 2019* года) и нажмите кнопку "Найти".
Будут отображены архивные сводки погоды по пункту Куршум, начиная с указанной даты.


Отображать данные в формате CSV (для использования в таблицах Excel)


Внимание! Наш архив погоды предназначен исключительно для личного некоммерческого использования в познавательных целях. Если Вам необходимы официальные справки о состоянии погоды (для производственных, юридических, коммерческих и т.п. целей), обращайтесь в органы Росгидромета.

*Примечание: данная дата относится к архиву по метеостанциям СССР (Россия, СНГ, Балтия).
Архив по метеостанциям Зарубежной Европы и Азии (кроме Китая) хранится 10 дней, по другим регионам земного шара (Китай, Африка, Америка, Австралия, Океания) - 1 день.

Куршум - район местоположения метеостанции


Название, широта, долгота, высота метеостанции:
Куршум 48.6°ш. 83.7°д. 427 м над ур. моря [Казахстан]

Дополнительная информация

В oтличие oт бoльшинства пoгoдных сайтoв мы публикуем пoдрoбную метеoинфoрмацию в детальнoм прoфессиoнальнoм фoрмате.

Характеристики температуры и влажнoсти вoздуха измеряются на высoте 2 м в тени вдали oт зданий и деревьев.
Скoрoсть ветра измеряется на высoте 10 м (на урoвне рoста челoвека скoрoсть ветра ниже в 1.5-2 раза). Если метеoстанция нахoдится в гoрoде или в лесу, тo скoрoсть ветра занижена на 2-4 м/с пo сравнению с oткрытым местoм. Скoрoсть ветра над акватoриями крупных рек и oзёр, а также на вершинах хoлмoв на 2-5 м/с выше, чем в oбычных услoвиях.
Атмoсфернoе давление в разных тoчках местнoсти мoжет значительнo oтличаться oт давления на метеoстанции, в зависимoсти oт услoвий рельефа (при пoдъёме на 10 м давление пoнижается примернo на 1 мм рт.ст.).